[[{"header":{"parameterUnit":"m.s-1","parameterCategory":1,"la1":30.2991,"la2":30.254,"lo1":-89.0895,"lo2":-89.0444,"dy":0.0017,"dx":0.0017,"nx":28,"ny":28,"refTime":"2024-10-16T03:00:00:Z","depth":0,"parameterNumber":2,"parameterNumberName":"U-component_of_WINDS"},"data":[0,0,0,0,0,0,0,0,0,0,0,0,0,0,0,0,0,0,0,0,0,0,0,0,0,0,0,0,0,0,0,0,0,0,0,0,0,0,0,0,0,0,0,0,0,0,0,0,0,0,0,0,0,0,0,0,0,0,-2.7867,-2.7867,0,-2.7916,-2.7916,-2.7917,-2.7837,-2.7834,-2.7831,-2.7828,-2.7878,-2.7882,-2.7886,0,0,0,0,0,0,0,0,0,0,0,0,0,-2.7701,-2.7705,-2.7867,-2.7867,-2.7868,-2.7916,-2.7916,-2.7917,-2.7837,-2.7834,-2.783,-2.7827,-2.7877,-2.7881,-2.7886,0,0,0,0,0,0,0,0,0,0,0,0,0,-2.7764,-2.7706,-2.7867,-2.7834,-2.7831,-2.7916,-2.7916,-2.7917,-2.7838,-2.7834,-2.7829,-2.7826,-2.7875,-2.7881,-2.7887,-2.8005,0,0,-2.7904,-2.7907,0,0,0,0,0,0,0,0,-2.7761,-2.777,-2.7838,-2.7836,-2.7834,-2.7866,-2.7876,-2.7947,-2.7839,-2.7835,-2.7828,-2.7824,-2.7877,-2.7883,-2.7901,-2.8007,-2.8009,-2.7905,-2.7908,-2.7911,-2.7913,0,0,0,0,0,0,0,-2.7756,-2.7768,-2.7886,-2.7839,-2.7836,-2.7816,-2.782,-2.7889,-2.7879,-2.7835,-2.783,-2.7837,-2.7875,-2.7895,-2.7901,-2.801,-2.7905,-2.791,-2.7913,-2.7916,-2.8214,-2.8218,0,0,0,0,0,0,-2.7756,-2.7765,-2.7884,-2.7887,-2.7786,-2.7822,-2.7827,-2.786,-2.7878,-2.7877,-2.784,-2.7833,-2.7888,-2.7895,-2.7903,-2.8042,-2.7911,-2.7916,-2.792,-2.821,-2.8215,-2.822,0,0,0,0,0,0,-2.7753,-2.7768,-2.7882,-2.7825,-2.7838,-2.7829,-2.7867,-2.7863,-2.7883,-2.7881,-2.7879,-2.7863,-2.7885,-2.7895,-2.798,-2.8042,-2.7919,-2.7924,-2.8204,-2.8211,-2.8217,-2.8321,0,0,0,0,0,0,-2.7749,-2.7767,-2.7813,-2.7826,-2.7841,-2.796,-2.7871,-2.7867,-2.7893,-2.7884,-2.7902,-2.7901,-2.7882,-2.7972,-2.7986,-2.8048,-2.7929,-2.8199,-2.8208,-2.8215,-2.8312,-2.8331,-2.8346,0,0,0,0,0,-2.7743,-2.784,-2.7815,-2.783,-2.7898,-2.7964,-2.7972,-2.7948,-2.7899,-2.7944,-2.7943,-2.79,-2.8033,-2.7981,-2.7996,-2.8061,-2.8195,-2.8205,-2.8215,-2.8304,-2.8327,-2.8346,0,0,0,0,0,0,-2.7834,-2.7841,-2.7814,-2.7919,-2.7941,-2.795,-2.8006,-2.7973,-2.801,-2.8,-2.7969,-2.7973,-2.8065,-2.8071,-2.8013,-2.8176,-2.8105,-2.8119,-2.8169,-2.819,-2.8207,-2.8203,-2.7934,0,0,0,0,0,-2.7867,-2.792,-2.7923,-2.8015,-2.8027,-2.8015,-2.8043,-2.8023,-2.8045,-2.8054,-2.8058,-2.8081,-2.8127,-2.8159,-2.8202,-2.8312,-2.8314,-2.8364,-2.8381,-2.8395,-2.8408,-2.8465,-2.8487,-2.8253,-2.8253,-2.8252,0,0,-2.7934,-2.7944,-2.798,-2.8033,-2.8048,-2.8103,-2.8024,-2.8086,-2.8126,-2.8063,-2.8144,-2.8148,-2.8171,-2.8269,-2.8312,-2.8277,-2.8473,-2.8408,-2.8419,-2.8424,-2.8478,-2.85,-2.852,-2.8259,-2.8258,-2.8257,0,0,-2.8085,-2.8098,-2.8176,-2.8192,-2.8216,-2.8207,-2.8225,-2.8239,-2.8239,-2.832,-2.8273,-2.832,-2.8401,-2.8419,-2.8439,-2.8595,-2.8557,-2.8609,-2.8699,-2.8755,-2.8774,-2.879,-2.8845,-2.8865,-2.8621,-2.8621,-2.8622,0,-2.8165,-2.8247,-2.822,-2.8285,-2.8309,-2.8254,-2.8331,-2.8349,-2.8385,-2.8403,-2.8363,-2.8462,-2.8474,-2.8575,-2.8613,-2.8631,-2.865,-2.8607,-2.8773,-2.8789,-2.8804,-2.8856,-2.8877,-2.8628,-2.8627,-2.8626,-2.8626,0,-2.8344,-2.8402,-2.8461,-2.8498,-2.8529,-2.86,-2.8582,-2.8617,-2.8593,-2.8588,-2.867,-2.8681,-2.8725,-2.8747,-2.8725,-2.8845,-2.8822,-2.8779,-2.8707,-2.8833,-2.8881,-2.8901,-2.8637,-2.8634,-2.8632,-2.8631,0,0,-2.8556,-2.8575,-2.8597,-2.8612,-2.8634,-2.8677,-2.8745,-2.8787,-2.8817,-2.8844,-2.8899,-2.8968,-2.8927,-2.895,-2.8929,-2.8979,-2.91,-2.8928,-2.8928,-2.8959,-2.9231,-2.9264,-2.9288,-2.9075,-2.9078,-2.9081,-2.9229,0,-2.8705,-2.8823,-2.8799,-2.8914,-2.8966,-2.8913,-2.8972,-2.8991,-2.8988,-2.903,-2.9026,-2.9075,-2.9018,-2.9031,-2.9078,-2.9075,-2.9154,-2.9064,-2.9125,-2.9128,-2.9122,-2.9313,-2.9349,-2.9488,-2.9248,-2.9251,-2.9253,0,-2.8896,-2.8929,-2.9049,-2.9061,-2.9082,-2.9135,-2.9172,-2.9213,-2.9233,-2.9227,-2.9251,-2.9221,-2.9287,-2.9214,-2.9304,-2.9244,-2.9267,-2.9269,-2.9274,-2.9279,-2.9199,-2.9323,-2.9532,-2.9552,-2.9283,-2.9281,-2.9279,0,-2.9037,-2.9112,-2.9193,-2.9208,-2.9224,-2.9262,-2.9271,-2.9286,-2.9313,-2.9344,-2.9361,-2.94,-2.9421,-2.9451,-2.9431,-2.9381,-2.9524,-2.9451,-2.9521,-2.9521,-2.9554,-2.9552,-2.9769,-2.9569,-2.9569,-2.9568,-2.9568,0,-2.9207,-2.9282,-2.9257,-2.9307,-2.9389,-2.936,-2.9442,-2.9444,-2.9458,-2.9507,-2.9464,-2.951,-2.9481,-2.9525,-2.9509,-2.9585,-2.9596,-2.9592,-2.9587,-2.9596,-2.9596,-2.9611,-2.9601,-2.9574,-2.9573,-2.9572,-2.9571,0,-2.9379,-2.9365,-2.945,-2.9457,-2.9461,-2.9521,-2.9527,-2.9573,-2.9566,-2.9628,-2.9641,-2.9629,-2.9678,-2.9661,-2.9714,-2.9703,-2.98,-2.9783,-2.9794,-2.9789,-2.986,-2.9854,-3.0094,-3.0123,-2.9905,-2.9907,-2.9909,0,-2.9488,-2.9545,-2.9558,-2.9588,-2.9599,-2.9648,-2.9674,-2.9648,-2.9677,-2.9703,-2.9746,-2.9791,-2.9826,-2.9906,-2.9902,-2.9941,-2.9924,-3.0006,-2.993,-2.9937,-2.9925,-2.9922,-2.9927,-3.0021,-3.0024,-3.0026,-3.0027,0,-2.9683,-2.9673,-2.9714,-2.9752,-2.9785,-2.9814,-2.9838,-2.9865,-2.9839,-2.9874,-2.9924,-2.9951,-3.0004,-3.0049,-3.0084,-3.0091,-3.0055,-3.0051,-3.0069,-3.0079,-3.0083,-3.0081,-2.9835,-3.0046,-3.0044,-3.0043,-3.0042,-3.0041,-2.9827,-2.9874,-2.9891,-2.9937,-2.9953,-2.9976,-3.002,-3.0017,-3.0058,-3.01,-3.0081,-3.0138,-3.0155,-3.0198,-3.021,-3.0254,-3.0222,-3.0249,-3.0255,-3.0262,-3.0271,-3.0076,-3.026,-3.026,-3.0259,-3.0259,-3.0258,0,-3.002,-3.0027,-3.007,-3.0106,-3.0142,-3.0104,-3.0129,-3.0161,-3.0212,-3.0231,-3.0266,-3.0322,-3.0365,-3.0364,-3.0403,-3.0438,-3.0422,-3.0449,-3.0447,-3.0449,-3.0298,-3.0278,-3.0461,-3.0461,-3.0461,-3.0461,-3.0461,-3.0461,-3.0124,-3.0202,-3.0194,-3.0278,-3.0285,-3.0341,-3.0358,-3.0379,-3.0394,-3.0458,-3.0494,-3.0493,-3.0503,-3.0543,-3.058,-3.0578,-3.0595,-3.0628,-3.062,-3.048,-3.0459,-3.044,-3.0421,-3.0632,-3.0632,-3.0767,-3.0769,-3.077]},{"header":{"parameterUnit":"m.s-1","parameterCategory":1,"la1":30.2991,"la2":30.254,"lo1":-89.0895,"lo2":-89.0444,"dy":0.0017,"dx":0.0017,"nx":28,"ny":28,"refTime":"2024-10-16T03:00:00:Z","depth":0,"parameterNumber":3,"parameterNumberName":"V-component_of_WINDS"},"data":[0,0,0,0,0,0,0,0,0,0,0,0,0,0,0,0,0,0,0,0,0,0,0,0,0,0,0,0,0,0,0,0,0,0,0,0,0,0,0,0,0,0,0,0,0,0,0,0,0,0,0,0,0,0,0,0,0,0,-7.0567,-7.0568,0,-7.0661,-7.0662,-7.0663,-7.0558,-7.0554,-7.055,-7.0546,-7.0636,-7.0642,-7.0648,0,0,0,0,0,0,0,0,0,0,0,0,0,-7.0291,-7.0296,-7.0567,-7.0569,-7.057,-7.0661,-7.0662,-7.0663,-7.0559,-7.0554,-7.0549,-7.0544,-7.0634,-7.0641,-7.0648,0,0,0,0,0,0,0,0,0,0,0,0,0,-7.04,-7.0298,-7.0567,-7.0529,-7.0526,-7.0661,-7.0662,-7.0664,-7.056,-7.0554,-7.0548,-7.0542,-7.0631,-7.064,-7.0649,-7.0824,0,0,-7.0677,-7.0681,0,0,0,0,0,0,0,0,-7.0394,-7.041,-7.0533,-7.0531,-7.0529,-7.0592,-7.0597,-7.0717,-7.0561,-7.0547,-7.0546,-7.0539,-7.0625,-7.0635,-7.0665,-7.0828,-7.0832,-7.0678,-7.0683,-7.0687,-7.069,0,0,0,0,0,0,0,-7.0386,-7.0406,-7.0604,-7.0535,-7.0532,-7.0504,-7.0513,-7.0619,-7.0618,-7.0547,-7.054,-7.0553,-7.0623,-7.0657,-7.0666,-7.0834,-7.0678,-7.0686,-7.0691,-7.0695,-7.1143,-7.1149,0,0,0,0,0,0,-7.0384,-7.04,-7.0601,-7.0607,-7.0446,-7.0514,-7.0524,-7.0577,-7.0617,-7.0617,-7.0558,-7.0548,-7.0644,-7.0656,-7.0669,-7.0875,-7.0687,-7.0696,-7.0701,-7.1136,-7.1144,-7.1151,0,0,0,0,0,0,-7.0379,-7.0403,-7.0597,-7.0502,-7.0524,-7.0525,-7.0586,-7.0582,-7.0616,-7.0625,-7.0623,-7.0593,-7.064,-7.0656,-7.0786,-7.0877,-7.07,-7.0708,-7.1129,-7.1139,-7.1147,-7.129,0,0,0,0,0,0,-7.0371,-7.0402,-7.047,-7.0504,-7.053,-7.0716,-7.0592,-7.0589,-7.0633,-7.062,-7.0657,-7.0657,-7.0636,-7.0773,-7.0795,-7.0886,-7.0715,-7.112,-7.1133,-7.1144,-7.1277,-7.1303,-7.1325,0,0,0,0,0,-7.0362,-7.0506,-7.0474,-7.0499,-7.0616,-7.0721,-7.0736,-7.071,-7.064,-7.0708,-7.0713,-7.0656,-7.0864,-7.0788,-7.0812,-7.0906,-7.1115,-7.1129,-7.1143,-7.1266,-7.1298,-7.1325,0,0,0,0,0,0,-7.0481,-7.0509,-7.0475,-7.0635,-7.0677,-7.0703,-7.0788,-7.0745,-7.0806,-7.0792,-7.0756,-7.0765,-7.0903,-7.0917,-7.0832,-7.1076,-7.0977,-7.0997,-7.1062,-7.1092,-7.1116,-7.1109,-7.0723,0,0,0,0,0,-7.0526,-7.0612,-7.0631,-7.077,-7.0793,-7.0787,-7.0832,-7.0809,-7.085,-7.0867,-7.0881,-7.0922,-7.0995,-7.1045,-7.1113,-7.1279,-7.1284,-7.1355,-7.138,-7.1399,-7.1417,-7.1503,-7.1534,-7.1198,-7.1198,-7.1198,0,0,-7.0619,-7.0645,-7.0701,-7.0794,-7.0824,-7.0911,-7.0803,-7.0899,-7.0963,-7.088,-7.1004,-7.1017,-7.1059,-7.1207,-7.1273,-7.1223,-7.1511,-7.1418,-7.1434,-7.144,-7.1521,-7.1553,-7.1581,-7.1208,-7.1206,-7.1205,0,0,-7.0834,-7.0864,-7.0982,-7.1014,-7.1061,-7.1056,-7.1084,-7.1118,-7.1123,-7.1248,-7.1187,-7.1261,-7.139,-7.1422,-7.1455,-7.1681,-7.163,-7.1704,-7.183,-7.1914,-7.1941,-7.1964,-7.2043,-7.2071,-7.1721,-7.1721,-7.1722,0,-7.0943,-7.1074,-7.1047,-7.1149,-7.119,-7.1122,-7.1239,-7.1271,-7.1337,-7.1366,-7.131,-7.147,-7.1493,-7.1647,-7.1702,-7.1732,-7.1761,-7.1699,-7.194,-7.1963,-7.1984,-7.2058,-7.2088,-7.173,-7.1729,-7.1728,-7.1727,0,-7.1205,-7.1297,-7.1387,-7.1454,-7.1506,-7.1615,-7.1602,-7.1657,-7.1629,-7.1629,-7.1755,-7.1781,-7.1853,-7.1888,-7.1861,-7.2038,-7.2005,-7.1946,-7.1844,-7.2025,-7.2094,-7.2123,-7.1742,-7.1739,-7.1737,-7.1735,0,0,-7.1497,-7.1549,-7.1582,-7.1611,-7.1657,-7.1726,-7.1831,-7.1903,-7.195,-7.1998,-7.2083,-7.2194,-7.2138,-7.2176,-7.2152,-7.2227,-7.2401,-7.2157,-7.2157,-7.22,-7.2595,-7.2638,-7.2672,-7.2368,-7.2374,-7.2378,-7.259,0,-7.1711,-7.1896,-7.1874,-7.2049,-7.2131,-7.2067,-7.2158,-7.2195,-7.2198,-7.2266,-7.2268,-7.2346,-7.2268,-7.229,-7.2361,-7.2365,-7.248,-7.235,-7.2445,-7.2449,-7.2435,-7.2709,-7.2756,-7.2955,-7.2617,-7.2622,-7.2625,0,-7.1986,-7.2045,-7.2229,-7.2262,-7.2296,-7.2378,-7.2442,-7.2509,-7.2549,-7.2545,-7.2588,-7.255,-7.2652,-7.2551,-7.269,-7.2602,-7.2639,-7.2647,-7.2654,-7.266,-7.2547,-7.2721,-7.3018,-7.3048,-7.2668,-7.2665,-7.2662,0,-7.2178,-7.2304,-7.243,-7.2457,-7.2499,-7.2558,-7.2577,-7.2611,-7.2656,-7.271,-7.2738,-7.2804,-7.2839,-7.2889,-7.287,-7.2798,-7.3012,-7.2909,-7.301,-7.301,-7.3056,-7.3054,-7.3362,-7.3084,-7.3083,-7.3083,-7.3082,0,-7.2419,-7.2533,-7.2517,-7.2594,-7.272,-7.2692,-7.2816,-7.2827,-7.2858,-7.2934,-7.2882,-7.2954,-7.2925,-7.2994,-7.2979,-7.3095,-7.3112,-7.311,-7.3104,-7.3114,-7.3114,-7.3137,-7.3122,-7.309,-7.3089,-7.3087,-7.3086,0,-7.2654,-7.2648,-7.2781,-7.281,-7.282,-7.2911,-7.2934,-7.3005,-7.3004,-7.3101,-7.3122,-7.3119,-7.3198,-7.3184,-7.3271,-7.326,-7.3405,-7.3383,-7.3393,-7.3387,-7.3488,-7.3478,-7.3821,-7.3863,-7.3559,-7.3562,-7.3564,0,-7.2808,-7.2895,-7.2933,-7.2982,-7.3006,-7.3085,-7.313,-7.3105,-7.3154,-7.3205,-7.327,-7.3345,-7.3403,-7.3532,-7.3536,-7.3602,-7.358,-7.3695,-7.3589,-7.3596,-7.3579,-7.3574,-7.3581,-7.3716,-7.3719,-7.3722,-7.3725,0,-7.308,-7.3072,-7.3141,-7.3209,-7.3265,-7.3316,-7.3362,-7.3404,-7.3383,-7.344,-7.3522,-7.3567,-7.3656,-7.373,-7.3792,-7.3808,-7.3763,-7.3758,-7.3785,-7.3795,-7.3796,-7.3795,-7.3449,-7.375,-7.3748,-7.3746,-7.3744,-7.3743,-7.3278,-7.3351,-7.339,-7.3467,-7.35,-7.3544,-7.3612,-7.362,-7.3688,-7.376,-7.3741,-7.3832,-7.3867,-7.3945,-7.3969,-7.4039,-7.3995,-7.4034,-7.4043,-7.4053,-7.4065,-7.3787,-7.405,-7.4049,-7.4048,-7.4048,-7.4047,0,-7.3546,-7.3567,-7.3639,-7.3706,-7.3767,-7.3721,-7.3769,-7.3821,-7.3904,-7.3941,-7.4,-7.4092,-7.4164,-7.4174,-7.4241,-7.4294,-7.4275,-7.4313,-7.4308,-7.4312,-7.41,-7.407,-7.4327,-7.4327,-7.4327,-7.4327,-7.4327,-7.4327,-7.3692,-7.3814,-7.3811,-7.3947,-7.3967,-7.4058,-7.4089,-7.4128,-7.4158,-7.4265,-7.4324,-7.4331,-7.4357,-7.4425,-7.4488,-7.4488,-7.4515,-7.456,-7.4553,-7.4355,-7.4327,-7.43,-7.4271,-7.4567,-7.4567,-7.4758,-7.476,-7.4761]}]]